TimePDT,TemperatureF,Dew PointF,Humidity,Sea Level PressureIn,VisibilityMPH,Wind Direction,Wind SpeedMPH,Gust SpeedMPH,PrecipitationIn,Events,Conditions,WindDirDegrees,DateUTC
12:05 AM,51.8,48.2,88,30.03,1.0,NNE,3.5,-,N/A,,Overcast,20,2013-10-24 07:05:00
12:14 AM,51.8,48.2,88,30.03,0.8,North,3.5,-,N/A,,Overcast,10,2013-10-24 07:14:00
12:53 AM,51.1,48.0,89,30.04,0.8,Calm,Calm,-,N/A,,Mist,0,2013-10-24 07:53:00
1:53 AM,51.1,48.0,89,30.04,1.0,Calm,Calm,-,N/A,,Mist,0,2013-10-24 08:53:00
2:53 AM,50.0,46.9,89,30.05,1.2,Calm,Calm,-,N/A,,Overcast,0,2013-10-24 09:53:00
3:00 AM,50.0,46.4,87,30.04,1.8,Calm,Calm,-,N/A,,Overcast,0,2013-10-24 10:00:00
3:11 AM,50.0,48.2,94,30.05,1.0,Calm,Calm,-,N/A,,Overcast,0,2013-10-24 10:11:00
3:41 AM,51.8,46.4,82,30.04,1.8,Calm,Calm,-,N/A,,Overcast,0,2013-10-24 10:41:00
3:53 AM,50.0,46.9,89,30.05,2.5,NE,3.5,-,N/A,,Overcast,50,2013-10-24 10:53:00
4:03 AM,50.0,46.4,87,30.05,3.0,Calm,Calm,-,N/A,,Overcast,0,2013-10-24 11:03:00
4:17 AM,50.0,46.4,87,30.05,1.8,East,3.5,-,N/A,,Overcast,90,2013-10-24 11:17:00
4:27 AM,50.0,46.4,87,30.05,1.0,Calm,Calm,-,N/A,,Overcast,0,2013-10-24 11:27:00
4:53 AM,50.0,46.9,89,30.05,1.5,Calm,Calm,-,N/A,,Overcast,0,2013-10-24 11:53:00
5:03 AM,50.0,46.4,87,30.05,1.2,Calm,Calm,-,N/A,,Overcast,0,2013-10-24 12:03:00
5:25 AM,50.0,46.4,87,30.05,0.8,Calm,Calm,-,N/A,,Overcast,0,2013-10-24 12:25:00
5:45 AM,50.0,46.4,87,30.05,1.0,Calm,Calm,-,N/A,,Overcast,0,2013-10-24 12:45:00
5:53 AM,50.0,46.9,89,30.05,0.8,Calm,Calm,-,N/A,,Overcast,0,2013-10-24 12:53:00
6:53 AM,50.0,46.9,89,30.05,1.0,Calm,Calm,-,N/A,,Overcast,0,2013-10-24 13:53:00
7:53 AM,50.0,46.9,89,30.05,1.5,NNE,3.5,-,N/A,,Overcast,20,2013-10-24 14:53:00
8:17 AM,50.0,46.4,87,30.05,1.0,Calm,Calm,-,N/A,,Overcast,0,2013-10-24 15:17:00
8:42 AM,51.8,46.4,82,30.05,1.8,NNE,3.5,-,N/A,,Overcast,30,2013-10-24 15:42:00
8:53 AM,51.1,46.9,86,30.06,1.8,NE,4.6,-,N/A,,Overcast,50,2013-10-24 15:53:00
9:06 AM,51.8,46.4,82,30.06,2.0,NE,3.5,-,N/A,,Overcast,40,2013-10-24 16:06:00
9:43 AM,51.8,48.2,88,30.07,1.8,North,3.5,-,N/A,,Overcast,10,2013-10-24 16:43:00
9:53 AM,51.1,48.0,89,30.07,1.5,NNE,3.5,-,N/A,,Overcast,30,2013-10-24 16:53:00
10:30 AM,51.8,48.2,88,30.07,2.5,Calm,Calm,-,N/A,,Overcast,0,2013-10-24 17:30:00
10:37 AM,51.8,48.2,88,30.07,4.0,Calm,Calm,-,N/A,,Overcast,0,2013-10-24 17:37:00
10:53 AM,53.1,48.9,86,30.07,5.0,NE,3.5,-,N/A,,Overcast,40,2013-10-24 17:53:00
11:10 AM,53.6,48.2,82,30.07,6.0,North,4.6,-,N/A,,Overcast,10,2013-10-24 18:10:00
11:53 AM,54.0,50.0,86,30.08,5.0,NNE,3.5,-,N/A,,Overcast,30,2013-10-24 18:53:00
12:53 PM,55.0,48.9,80,30.08,6.0,North,4.6,-,N/A,,Haze,350,2013-10-24 19:53:00
1:53 PM,55.9,48.9,77,30.07,6.0,WNW,4.6,-,N/A,,Haze,300,2013-10-24 20:53:00
2:53 PM,55.9,50.0,80,30.06,5.0,NW,5.8,-,N/A,,Haze,310,2013-10-24 21:53:00
3:25 PM,55.4,48.2,77,30.06,5.0,Variable,4.6,-,N/A,,Haze,0,2013-10-24 22:25:00
3:53 PM,55.9,48.9,77,30.06,5.0,WNW,4.6,-,N/A,,Haze,300,2013-10-24 22:53:00
4:53 PM,55.0,48.0,77,30.07,6.0,WNW,5.8,-,N/A,,Haze,290,2013-10-24 23:53:00
5:53 PM,55.0,48.0,77,30.07,6.0,Calm,Calm,-,N/A,,Haze,0,2013-10-25 00:53:00
6:08 PM,53.6,46.4,77,30.07,6.0,Calm,Calm,-,N/A,,Haze,0,2013-10-25 01:08:00
6:18 PM,53.6,46.4,77,30.07,6.0,Calm,Calm,-,N/A,,Haze,0,2013-10-25 01:18:00
6:53 PM,48.9,46.0,90,30.08,3.0,Calm,Calm,-,N/A,,Partly Cloudy,0,2013-10-25 01:53:00
7:12 PM,48.2,44.6,87,30.07,1.8,Calm,Calm,-,N/A,,Clear,0,2013-10-25 02:12:00
7:19 PM,48.2,44.6,87,30.07,0.8,Calm,Calm,-,N/A,,Clear,0,2013-10-25 02:19:00
7:36 PM,46.4,42.8,87,30.08,0.8,Calm,Calm,-,N/A,,Mist,0,2013-10-25 02:36:00
7:50 PM,46.4,42.8,87,30.08,1.8,Calm,Calm,-,N/A,,Haze,0,2013-10-25 02:50:00
7:53 PM,46.9,43.0,86,30.08,3.0,Calm,Calm,-,N/A,,Mostly Cloudy,0,2013-10-25 02:53:00
8:14 PM,48.2,44.6,87,30.08,1.8,Calm,Calm,-,N/A,,Overcast,0,2013-10-25 03:14:00
8:22 PM,46.4,44.6,93,30.09,1.2,Calm,Calm,-,N/A,,Overcast,0,2013-10-25 03:22:00
8:26 PM,46.4,42.8,87,30.09,2.0,Calm,Calm,-,N/A,,Overcast,0,2013-10-25 03:26:00
8:31 PM,46.4,42.8,87,30.09,1.0,Calm,Calm,-,N/A,,Haze,0,2013-10-25 03:31:00
8:38 PM,46.4,42.8,87,30.09,0.5,Calm,Calm,-,N/A,Fog,Fog,0,2013-10-25 03:38:00
8:45 PM,46.4,42.8,87,30.09,0.5,Calm,Calm,-,N/A,,Haze,0,2013-10-25 03:45:00
8:53 PM,46.0,42.1,86,30.09,0.2,Calm,Calm,-,N/A,Fog,Fog,0,2013-10-25 03:53:00
8:56 PM,46.4,42.8,87,30.09,0.2,Calm,Calm,-,N/A,Fog,Fog,0,2013-10-25 03:56:00
9:08 PM,44.6,42.8,93,30.09,0.2,Calm,Calm,-,N/A,Fog,Fog,0,2013-10-25 04:08:00
9:30 PM,44.6,41.0,87,30.10,0.2,Calm,Calm,-,N/A,Fog,Fog,0,2013-10-25 04:30:00
9:53 PM,43.0,39.9,89,30.11,0.2,Calm,Calm,-,N/A,Fog,Fog,0,2013-10-25 04:53:00
10:20 PM,42.8,39.2,87,30.11,0.2,Calm,Calm,-,N/A,Fog,Fog,0,2013-10-25 05:20:00
10:53 PM,43.0,39.9,89,30.12,0.2,Calm,Calm,-,N/A,Fog,Fog,0,2013-10-25 05:53:00
11:46 PM,44.6,41.0,87,30.13,0.2,North,3.5,-,N/A,Fog,Fog,350,2013-10-25 06:46:00
11:53 PM,44.1,41.0,89,30.13,0.2,Calm,Calm,-,N/A,Fog,Fog,0,2013-10-25 06:53:00